Flag for Netherlands Weather past 2 weeks in Wageningen, Netherlands

Now
64 °F

Passing clouds.


Feels Like: 64 °F
Forecast: 54 / 70 °F
Wind: 5 mph from East

Location: Deelen

Current Time: Aug 27, 2014 at 11:21:13 AM

Latest Report: Aug 27, 2014 at 10:55 AM


Visibility: N/A

Pressure: 30.01 "Hg

Humidity: 64%

Dew point: 52 °F

Location of WageningenLocation

Historic Weather in Wageningen — Graph

°F

Wageningen temperature yesterday

Maximum temperature yesterday: 61 °F (at 3:55 PM)
Minimum temperature yesterday: 50 °F (at 10:55 PM)
Average temperature yesterday: 56 °F

Past Weeks' High & Low Weather Summary

 TemperatureHumidityPressure
High70 °F (Aug 13, 2:25 PM)100% (Aug 13, 6:25 AM)30.09 "Hg (Aug 13, 6:25 AM)
Low43 °F (Aug 25, 12:55 AM)49% (Aug 23, 5:55 PM)29.62 "Hg (Aug 18, 2:55 AM)
Average56 °F85%29.86 "Hg
* Reported Aug 12 9:25 AM — Aug 27 9:55 AM, Wageningen, Weather by CustomWeather, © 2014

Note: Actual official high and low records may vary slightly from our data, if they occured in-between our weather recording intervals... More about our weather records

Advertising

Wageningen weather history for previous 24 hours

 ConditionsComfort  
Time TempWeatherWind HumidityBarometerVisibility
9:55 AM
Aug 27
61 °FPassing clouds.5 mph77%30.01 "HgN/A
9:25 AM59 °FPassing clouds.3 mph82%30.01 "HgN/A
8:55 AM55 °FCool.5 mph88%29.98 "HgN/A
8:25 AM50 °FCool.1 mph94%29.98 "HgN/A
7:55 AM46 °FPassing clouds.No wind93%29.98 "HgN/A
7:25 AM43 °FPassing clouds.2 mph100%29.95 "HgN/A
6:55 AM43 °FFog.2 mph100%29.95 "Hg4 mi
6:25 AM45 °FFog.2 mph100%29.95 "Hg4 mi
5:55 AM48 °FPassing clouds.2 mph94%29.95 "HgN/A
5:25 AM48 °FPassing clouds.1 mph94%29.92 "HgN/A
4:55 AM48 °FPassing clouds.1 mph94%29.92 "HgN/A
4:25 AM48 °FPassing clouds.1 mph100%29.92 "HgN/A
3:55 AM48 °FPassing clouds.2 mph94%29.92 "HgN/A
3:25 AM48 °FPassing clouds.5 mph100%29.92 "HgN/A
2:55 AM48 °FCool.8 mph100%29.89 "HgN/A
2:25 AM50 °FCool.9 mph94%29.89 "HgN/A
1:55 AM50 °FCool.9 mph94%29.89 "HgN/A
1:25 AM50 °FPassing clouds.10 mph94%29.89 "HgN/A
12:55 AM50 °FPassing clouds.10 mph94%29.86 "HgN/A
12:25 AM52 °FPassing clouds.10 mph88%29.86 "HgN/A
11:55 PM
Aug 26
52 °FPassing clouds.10 mph88%29.86 "HgN/A
11:25 PM52 °FPassing clouds.9 mph94%29.83 "HgN/A
10:55 PM50 °FFog.1 mph100%29.83 "Hg1 mi
10:25 PM52 °FFog.3 mph94%29.83 "Hg1 mi
9:55 PM52 °FFog.6 mph100%29.80 "Hg5 mi
9:25 PM54 °FFog.6 mph94%29.80 "Hg6 mi
8:55 PM55 °FCool.5 mph94%29.80 "HgN/A
8:25 PM57 °FPartly sunny.6 mph94%29.77 "HgN/A
7:55 PM59 °FPassing clouds.3 mph88%29.77 "HgN/A
7:25 PM61 °FPassing clouds.7 mph83%29.77 "HgN/A
6:55 PM61 °FPassing clouds.9 mph83%29.77 "HgN/A
6:25 PM61 °FPartly sunny.8 mph83%29.74 "HgN/A
5:55 PM61 °FPartly sunny.12 mph83%29.74 "HgN/A
5:25 PM61 °FScattered clouds.12 mph83%29.74 "HgN/A
4:55 PM61 °FPartly sunny.12 mph83%29.74 "HgN/A
4:25 PM59 °FPartly sunny.10 mph88%29.74 "HgN/A
3:55 PM61 °FScattered clouds.9 mph88%29.74 "HgN/A
3:25 PM59 °FBroken clouds.10 mph88%29.74 "HgN/A
2:55 PM59 °FMostly cloudy.9 mph88%29.74 "HgN/A
2:25 PM59 °FBroken clouds.10 mph88%29.74 "HgN/A
1:55 PM59 °FMostly cloudy.10 mph88%29.74 "HgN/A
1:25 PM57 °FFog.9 mph94%29.74 "Hg6 mi
12:55 PM57 °FFog.12 mph94%29.74 "Hg6 mi
12:25 PM57 °FDrizzle. More clouds than sun.9 mph94%29.71 "Hg5 mi
11:55 AM57 °FFog.10 mph94%29.71 "Hg5 mi
11:25 AM55 °FFog.13 mph100%29.71 "Hg3 mi
Weather by CustomWeather, © 2014

See weather overviewHow to use our weather pages